Change the Weather History Date:

Sunday, September 29, 2013

  Actual Average (KSZL) Record (KSZL)
Temperature  
Mean Temperature 58 °F -  
Max Temperature 71 °F 72 °F 91 °F (2002)
Min Temperature 44 °F 50 °F 37 °F (2003)
Degree Days  
Heating Degree Days 8    
Growing Degree Days 8 (Base 50)    
Moisture  
Dew Point 48 °F    
Average Humidity 78    
Maximum Humidity 100    
Minimum Humidity 43    
Precipitation  
Precipitation 0.00 in - - ()
Sea Level Pressure  
Sea Level Pressure 30.05 in    
Wind  
Wind Speed 1 mph (East)    
Max Wind Speed 6 mph    
Max Gust Speed -    
Visibility 6 miles    
Events Fog    
Averages and records for this station are not official NWS values.
T = Trace of Precipitation, MM = Missing Value Source: NWS Daily Summary

Daily Weather History Graph

Daily Weather History Graph

Search for Another Location

Airport or City:

Trip Planner

Search our weather history database for the weather conditions in past years. The results will help you decide how hot, cold, wet, or windy it might be!

Date:

Astronomy

Sep. 29, 2013 Rise Set
Actual Time 7:09 AM CDT 7:00 PM CDT
Civil Twilight 6:42 AM CDT 7:27 PM CDT
Nautical Twilight 6:12 AM CDT 7:57 PM CDT
Astronomical Twilight 5:40 AM CDT 8:29 PM CDT
Moon 1:54 AM CDT (9/29) 3:54 PM CDT (9/29)
Length of Visible Light 12h 44m
Length of Day
11h 51m
Waning Crescent, 27% of the Moon is Illuminated
Sep 29
Waning Crescent
Oct 4
New
Oct 11
First Quarter
Oct 18
Full
Oct 26
Last Quarter

Hourly Weather History & Observations

Time (CDT) Temp. Dew Point Humidity Pressure Visibility Wind Dir Wind Speed Gust Speed Precip Events Conditions
12:15 AM 48.2 °F 46.4 °F 93% 30.09 in 0.2 mi Calm Calm - N/A Fog Fog
12:35 AM 46.4 °F 46.4 °F 100% 30.09 in 0.5 mi Calm Calm - N/A Fog Fog
12:55 AM 48.2 °F 46.4 °F 93% 30.09 in 0.2 mi Calm Calm - N/A Fog Fog
1:15 AM 46.4 °F 46.4 °F 100% 30.09 in 0.2 mi Calm Calm - N/A Fog Fog
1:35 AM 46.4 °F 44.6 °F 93% 30.09 in 0.2 mi Calm Calm - N/A Fog Fog
1:55 AM 46.4 °F 44.6 °F 93% 30.09 in 0.2 mi Calm Calm - N/A Fog Fog
2:15 AM 46.4 °F 44.6 °F 93% 30.09 in 0.5 mi Calm Calm - N/A Fog Fog
2:35 AM 44.6 °F 44.6 °F 100% 30.09 in 0.2 mi Calm Calm - N/A Fog Fog
2:55 AM 44.6 °F 44.6 °F 100% 30.09 in 0.5 mi Calm Calm - N/A Fog Fog
3:15 AM 44.6 °F 44.6 °F 100% 30.09 in 0.2 mi Calm Calm - N/A Fog Fog
3:35 AM 44.6 °F 44.6 °F 100% 30.08 in 0.5 mi Calm Calm - N/A Fog Fog
3:55 AM 44.6 °F 42.8 °F 93% 30.08 in 0.2 mi Calm Calm - N/A Fog Fog
4:15 AM 44.6 °F 42.8 °F 93% 30.08 in 0.5 mi Calm Calm - N/A Fog Fog
4:35 AM 44.6 °F 42.8 °F 93% 30.08 in 0.5 mi Calm Calm - N/A Fog Fog
4:55 AM 44.6 °F 44.6 °F 100% 30.08 in 0.2 mi Calm Calm - N/A Fog Fog
5:15 AM 44.6 °F 44.6 °F 100% 30.08 in 0.2 mi Calm Calm - N/A Fog Fog
5:35 AM 44.6 °F 42.8 °F 93% 30.09 in 0.2 mi Calm Calm - N/A Fog Fog
5:55 AM 44.6 °F 42.8 °F 93% 30.09 in 0.2 mi Calm Calm - N/A Fog Fog
6:15 AM 44.6 °F 42.8 °F 93% 30.09 in 0.2 mi Calm Calm - N/A Fog Fog
6:35 AM 44.6 °F 42.8 °F 93% 30.09 in 0.2 mi Calm Calm - N/A Fog Fog
6:55 AM 44.6 °F 42.8 °F 93% 30.10 in 0.2 mi Calm Calm - N/A Fog Fog
7:15 AM 44.6 °F 42.8 °F 93% 30.10 in 0.2 mi Calm Calm - N/A Fog Fog
7:35 AM 44.6 °F 42.8 °F 93% 30.10 in 0.2 mi Calm Calm - N/A Fog Fog
7:55 AM 44.6 °F 44.6 °F 100% 30.10 in 0.2 mi Calm Calm - N/A Fog Fog
8:15 AM 46.4 °F 44.6 °F 93% 30.11 in 0.2 mi Calm Calm - N/A Fog Fog
8:35 AM 46.4 °F 46.4 °F 100% 30.11 in 0.2 mi Calm Calm - N/A Fog Fog
8:55 AM 48.2 °F 46.4 °F 93% 30.12 in 0.2 mi Calm Calm - N/A Fog Fog
9:15 AM 50.0 °F 50.0 °F 100% 30.12 in 0.2 mi Calm Calm - N/A Fog Fog
9:55 AM 53.6 °F 51.8 °F 94% 30.12 in 0.2 mi Calm Calm - N/A Fog Fog
10:15 AM 55.4 °F 53.6 °F 94% 30.12 in 4.0 mi Calm Calm - N/A   Mostly Cloudy
10:35 AM 57.2 °F 55.4 °F 94% 30.12 in 10.0 mi Calm Calm - N/A   Scattered Clouds
10:55 AM 59.0 °F 57.2 °F 94% 30.12 in 10.0 mi Calm Calm - N/A   Clear
11:15 AM 60.8 °F 59.0 °F 94% 30.12 in 10.0 mi Calm Calm - N/A   Clear
11:35 AM 62.6 °F 53.6 °F 72% 30.11 in 10.0 mi Calm Calm - N/A   Clear
11:55 AM 64.4 °F 51.8 °F 64% 30.10 in 10.0 mi Calm Calm - N/A   Clear
12:15 PM 66.2 °F 50.0 °F 56% 30.10 in 10.0 mi Calm Calm - N/A   Clear
12:35 PM 68.0 °F 46.4 °F 46% 30.09 in 10.0 mi ESE 3.5 mph - N/A   Clear
12:55 PM 68.0 °F 48.2 °F 49% 30.08 in 10.0 mi NNE 3.5 mph - N/A   Clear
1:15 PM 68.0 °F 48.2 °F 49% 30.07 in 10.0 mi NNE 4.6 mph - N/A   Clear
1:35 PM 68.0 °F 48.2 °F 49% 30.05 in 10.0 mi NNE 4.6 mph - N/A   Clear
1:55 PM 69.8 °F 48.2 °F 46% 30.04 in 10.0 mi Calm Calm - N/A   Clear
2:15 PM 69.8 °F 48.2 °F 46% 30.04 in 10.0 mi ENE 3.5 mph - N/A   Clear
2:35 PM 69.8 °F 50.0 °F 49% 30.03 in 10.0 mi NE 4.6 mph - N/A   Clear
2:55 PM 69.8 °F 50.0 °F 49% 30.02 in 10.0 mi Calm Calm - N/A   Clear
3:15 PM 71.6 °F 50.0 °F 46% 30.01 in 10.0 mi ESE 3.5 mph - N/A   Clear
3:35 PM 69.8 °F 50.0 °F 49% 30.01 in 10.0 mi SSE 4.6 mph - N/A   Clear
3:55 PM 71.6 °F 50.0 °F 46% 30.00 in 10.0 mi ESE 4.6 mph - N/A   Clear
4:15 PM 71.6 °F 50.0 °F 46% 30.00 in 10.0 mi ESE 3.5 mph - N/A   Clear
4:35 PM 71.6 °F 50.0 °F 46% 29.99 in 10.0 mi East 4.6 mph - N/A   Clear
4:55 PM 71.6 °F 50.0 °F 46% 29.99 in 10.0 mi ESE 5.8 mph - N/A   Clear
5:15 PM 71.6 °F 48.2 °F 43% 29.99 in 10.0 mi Calm Calm - N/A   Clear
5:35 PM 69.8 °F 48.2 °F 46% 29.99 in 10.0 mi ESE 4.6 mph - N/A   Clear
5:55 PM 69.8 °F 50.0 °F 49% 29.99 in 10.0 mi East 4.6 mph - N/A   Clear
6:15 PM 68.0 °F 50.0 °F 52% 29.99 in 10.0 mi East 3.5 mph - N/A   Clear
6:35 PM 66.2 °F 50.0 °F 56% 29.99 in 10.0 mi ESE 4.6 mph - N/A   Clear
6:55 PM 64.4 °F 50.0 °F 59% 29.98 in 10.0 mi East 3.5 mph - N/A   Clear
7:15 PM 62.6 °F 50.0 °F 63% 29.98 in 10.0 mi ESE 4.6 mph - N/A   Clear
7:35 PM 60.8 °F 50.0 °F 68% 29.98 in 10.0 mi ESE 3.5 mph - N/A   Clear
7:55 PM 60.8 °F 50.0 °F 68% 29.98 in 10.0 mi Calm Calm - N/A   Clear
8:15 PM 60.8 °F 50.0 °F 68% 29.98 in 10.0 mi East 3.5 mph - N/A   Clear
8:35 PM 59.0 °F 50.0 °F 72% 29.98 in 10.0 mi Calm Calm - N/A   Clear
8:55 PM 57.2 °F 50.0 °F 77% 29.99 in 10.0 mi Calm Calm - N/A   Clear
9:15 PM 57.2 °F 51.8 °F 82% 29.99 in 10.0 mi Calm Calm - N/A   Clear
9:35 PM 55.4 °F 51.8 °F 88% 29.99 in 10.0 mi Calm Calm - N/A   Clear
9:55 PM 55.4 °F 51.8 °F 88% 29.99 in 10.0 mi Calm Calm - N/A   Clear
10:15 PM 55.4 °F 51.8 °F 88% 29.99 in 10.0 mi Calm Calm - N/A   Clear
10:35 PM 53.6 °F 50.0 °F 88% 29.99 in 10.0 mi Calm Calm - N/A   Clear
10:55 PM 51.8 °F 50.0 °F 94% 29.98 in 10.0 mi Calm Calm - N/A   Clear
11:15 PM 51.8 °F 51.8 °F 100% 29.98 in 10.0 mi Calm Calm - N/A   Clear
11:35 PM 51.8 °F 50.0 °F 94% 29.98 in 10.0 mi Calm Calm - N/A   Clear
11:55 PM 51.8 °F 50.0 °F 94% 29.97 in 10.0 mi Calm Calm - N/A   Clear